Simultaneous Nadir Overpasses (SNOs) Predictions

Prediction of SNOs between NPP and TERRA Satellite Orbit:

Table of predicted SNOs for the next 14.0 days since TLE Epoch: 2/19/2014
Index Date (NPP) Time (NPP) Lat,Lon (NPP) SZA (NPP ) Date (TERRA) Time (TERRA) Lat,Lon (TERRA) SZA (TERRA ) Distance(km) Time Diff (sec)
1 02/19/2014 16:44:23 68.69, -72.21 79.77 02/19/2014 16:45:00 68.66, -72.24 79.75 2.95 37
2 02/19/2014 17:35:04 -68.55, 95.30 100.39 02/19/2014 17:34:30 -68.56, 95.26 100.38 1.48 34
3 02/22/2014 08:10:46 -69.31,-124.60 100.54 02/22/2014 08:11:56 -69.20,-123.33 100.70 51.43 70
4 02/22/2014 09:01:20 68.65, 43.61 78.77 02/22/2014 09:01:31 68.65, 43.61 78.76 0.91 11
5 02/22/2014 09:52:01 -68.51,-148.88 101.39 02/22/2014 09:51:01 -68.54,-148.88 101.36 3.19 60
6 02/25/2014 00:27:33 -68.75, -8.04 102.11 02/25/2014 00:28:34 -68.77, -8.00 102.10 3.10 61
7 02/25/2014 01:18:17 68.63, 159.43 77.75 02/25/2014 01:18:02 68.60, 159.43 77.73 3.02 15
8 02/25/2014 02:08:50 -68.05, -32.51 102.86 02/25/2014 02:07:39 -68.11, -33.53 102.77 42.79 71
9 02/27/2014 16:44:29 -68.72, 107.77 103.15 02/27/2014 16:45:04 -68.70, 107.79 103.17 2.47 35
10 02/27/2014 17:35:12 68.55, -84.70 76.67 02/27/2014 17:34:31 68.58, -84.71 76.70 3.26 41
11 03/02/2014 08:10:49 69.07, 55.75 76.22 03/02/2014 08:12:00 68.98, 56.38 76.10 27.47 71
12 03/02/2014 09:01:25 -68.65,-136.36 104.24 03/02/2014 09:01:34 -68.66,-136.39 104.23 1.34 9
13 03/02/2014 09:52:09 68.54, 31.10
